Date String (YYYY-MM-DD hh:mm:ss) UTC,Instrument flags,Ambient pressure (hPa),Sample flow (lpm),Bypass flow (lpm),Sample temperature (°C),Ambient temperature (°C),ASC tube jacket temperature (°C),LED temperature (°C),Box temperature (°C),Sample RH (%),Span deviation,Mass concentration (μg/m³),Mass concentration (μg/m³),Mass concentration (μg/m³)
DateTimeUTC,F1_M11,P_M11,Q1_M11,Q2_M11,T1_M11,T2_M11,T3_M11,T4_M11,T5_M11,U1_M11,ZSPAN_M11,X2_M11,X0_M11,X1_M11
2023-05-23 19:00:00,,0830.6,5.00,0.00,29.2,27.4,00.0,37.6,30.9,22.6,0003.2,0019.97,0028.66,0019.11
2023-05-23 19:01:00,,0830.5,5.00,0.00,29.3,27.6,00.0,37.6,31.0,22.5,0003.3,0019.90,0028.54,0019.06
2023-05-23 19:02:00,,0830.5,4.99,0.00,29.3,27.7,00.0,37.6,31.0,22.3,0003.3,0019.90,0028.86,0019.08
2023-05-23 19:03:00,,0830.6,5.00,0.00,29.3,27.8,00.0,37.6,31.0,22.9,0003.3,0019.86,0029.40,0019.04
2023-05-23 19:04:00,,0830.6,5.01,0.00,29.3,27.9,00.0,37.6,31.1,22.3,0003.3,0019.81,0029.07,0019.00
2023-05-23 19:05:00,,0830.6,5.01,0.00,29.4,28.0,00.0,37.6,31.1,22.4,0003.2,0019.82,0028.95,0018.98
2023-05-23 19:06:00,,0830.6,5.01,0.00,29.4,28.1,00.0,37.6,31.2,22.4,0003.1,0019.80,0029.98,0018.95
2023-05-23 19:07:00,,0830.5,5.00,0.00,29.4,28.2,00.0,37.7,31.2,22.0,0003.0,0019.78,0030.49,0018.91
2023-05-23 19:08:00,,0830.6,4.98,0.00,29.5,28.1,00.0,37.7,31.2,22.7,0003.0,0019.76,0030.63,0018.85
2023-05-23 19:09:00,,0830.4,5.00,0.00,29.5,26.6,00.0,37.6,31.0,23.1,0003.1,0019.72,0030.55,0018.83
2023-05-23 19:10:00,,0830.4,5.00,0.00,29.4,25.2,00.0,37.5,30.8,22.7,0003.2,0019.77,0030.56,0018.85
2023-05-23 19:11:00,,0830.4,5.00,0.00,29.3,25.1,00.0,37.5,30.7,23.2,0003.3,0019.85,0030.71,0018.90
2023-05-23 19:12:00,,0830.5,5.01,0.00,29.2,25.4,00.0,37.5,30.6,22.0,0003.3,0019.89,0030.19,0018.93
2023-05-23 19:13:00,,0830.4,5.00,0.00,29.2,25.8,00.0,37.5,30.6,22.1,0003.4,0019.87,0030.56,0018.92
2023-05-23 19:14:00,,0830.4,5.00,0.00,29.1,26.1,00.0,37.5,30.7,22.9,0003.5,0019.84,0030.51,0018.90
2023-05-23 19:15:00,,0830.4,5.00,0.00,29.1,26.5,00.0,37.5,30.7,22.6,0003.5,0019.86,0030.42,0018.90
2023-05-23 19:16:00,,0830.4,5.00,0.00,29.2,26.8,00.0,37.5,30.8,23.4,0003.5,0019.84,0030.05,0018.89
2023-05-23 19:17:00,,0830.4,4.99,0.00,29.2,27.0,00.0,37.5,30.8,23.3,0003.6,0019.83,0028.90,0018.92
2023-05-23 19:18:00,,0830.4,5.00,0.00,29.2,27.3,00.0,37.5,30.9,23.4,0003.7,0019.82,0028.18,0018.93
2023-05-23 19:19:00,,0830.4,5.00,0.00,29.2,27.5,00.0,37.5,30.9,22.8,0003.7,0019.86,0028.10,0018.96
2023-05-23 19:20:00,,0830.4,5.00,0.00,29.2,27.6,00.0,37.5,31.0,21.3,0003.8,0019.91,0028.22,0018.98
2023-05-23 19:21:00,,0830.4,5.00,0.00,29.2,27.7,00.0,37.5,31.0,19.1,0003.8,0019.95,0028.34,0019.03
2023-05-23 19:22:00,,0830.4,5.00,0.00,29.3,27.9,00.0,37.6,31.0,19.2,0003.7,0020.00,0028.30,0019.12
2023-05-23 19:23:00,,0830.4,4.99,0.00,29.3,28.0,00.0,37.6,31.1,19.4,0003.7,0020.13,0028.40,0019.24
2023-05-23 19:24:00,,0830.4,5.00,0.00,29.4,28.1,00.0,37.6,31.1,18.5,0003.7,0020.30,0028.79,0019.37
2023-05-23 19:25:00,,0830.3,5.01,0.00,29.4,28.1,00.0,37.6,31.2,19.1,0003.6,0020.50,0028.23,0019.53
2023-05-23 19:26:00,,0830.3,5.00,0.00,29.4,28.2,00.0,37.6,31.2,19.6,0003.5,0020.63,0028.42,0019.65
2023-05-23 19:27:00,,0830.3,5.00,0.00,29.5,28.2,00.0,37.7,31.2,19.5,0003.4,0020.80,0028.68,0019.81
2023-05-23 19:28:00,,0830.3,4.99,0.00,29.5,26.9,00.0,37.6,31.1,19.2,0003.5,0020.98,0029.00,0019.97
2023-05-23 19:29:00,,0830.3,5.01,0.00,29.4,26.0,00.0,37.5,30.9,18.8,0003.5,0021.17,0029.58,0020.11
2023-05-23 19:30:00,,0830.2,5.01,0.00,29.4,26.0,00.0,37.5,30.8,19.7,0003.4,0021.30,0029.98,0020.24
2023-05-23 19:31:00,,0830.3,4.98,0.00,29.3,26.2,00.0,37.5,30.8,19.4,0003.4,0021.44,0030.93,0020.39
2023-05-23 19:32:00,,0830.2,5.01,0.00,29.3,26.5,00.0,37.5,30.8,20.2,0003.5,0021.60,0031.57,0020.52
2023-05-23 19:33:00,,0830.3,5.01,0.00,29.3,26.8,00.0,37.6,30.9,19.4,0003.6,0021.68,0031.70,0020.56
2023-05-23 19:34:00,,0830.3,5.00,0.00,29.3,27.1,00.0,37.6,30.9,19.3,0003.6,0021.61,0031.83,0020.52
2023-05-23 19:35:00,,0830.3,4.99,0.00,29.3,27.3,00.0,37.6,31.0,20.3,0003.7,0021.56,0031.74,0020.47
2023-05-23 19:36:00,,0830.3,4.99,0.00,29.3,27.5,00.0,37.6,31.0,19.9,0003.7,0021.44,0031.92,0020.38
2023-05-23 19:37:00,,0830.3,5.00,0.00,29.3,27.7,00.0,37.6,31.0,19.9,0003.8,0021.30,0031.72,0020.26
2023-05-23 19:38:00,,0830.3,5.00,0.00,29.4,27.8,00.0,37.6,31.1,19.8,0003.8,0021.11,0031.82,0020.07
2023-05-23 19:39:00,,0830.3,5.01,0.00,29.4,28.0,00.0,37.6,31.1,19.4,0003.8,0020.89,0031.68,0019.88
2023-05-23 19:40:00,,0830.3,5.01,0.00,29.4,28.1,00.0,37.7,31.2,19.3,0003.7,0020.69,0031.34,0019.70
2023-05-23 19:41:00,,0830.3,4.99,0.00,29.5,28.0,00.0,37.7,31.2,19.2,0003.7,0020.47,0031.22,0019.53
2023-05-23 19:42:00,,0830.2,5.00,0.00,29.5,26.7,00.0,37.6,31.1,19.4,0003.7,0020.23,0030.20,0019.29
2023-05-23 19:43:00,,0830.2,5.01,0.00,29.4,25.9,00.0,37.5,30.9,19.0,0003.8,0020.01,0029.53,0019.07
2023-05-23 19:44:00,,0830.2,5.01,0.00,29.4,26.0,00.0,37.5,30.8,19.7,0003.8,0019.77,0029.23,0018.85
2023-05-23 19:45:00,,0830.3,5.01,0.00,29.3,26.3,00.0,37.6,30.8,19.6,0003.7,0019.66,0029.34,0018.73
2023-05-23 19:46:00,,0830.2,5.00,0.00,29.3,26.6,00.0,37.6,30.8,19.7,0003.7,0019.45,0028.67,0018.55
2023-05-23 19:47:00,,0830.2,4.99,0.00,29.3,26.8,00.0,37.6,30.9,18.6,0003.6,0019.26,0027.72,0018.39
2023-05-23 19:48:00,,0830.2,5.00,0.00,29.3,27.1,00.0,37.6,30.9,18.7,0003.5,0019.12,0027.49,0018.27
2023-05-23 19:49:00,,0830.2,5.00,0.00,29.3,27.3,00.0,37.6,31.0,18.6,0003.5,0018.95,0026.88,0018.10
2023-05-23 19:50:00,,0830.2,5.00,0.00,29.3,27.5,00.0,37.6,31.0,18.1,0003.6,0018.77,0026.52,0017.91
2023-05-23 19:51:00,,0830.3,5.00,0.00,29.4,27.7,00.0,37.6,31.1,18.4,0003.7,0018.56,0026.27,0017.72
2023-05-23 19:52:00,,0830.2,5.00,0.00,29.4,27.9,00.0,37.6,31.1,18.7,0003.7,0018.36,0026.02,0017.54
2023-05-23 19:53:00,,0830.2,5.00,0.00,29.4,28.0,00.0,37.7,31.1,18.3,0003.6,0018.30,0026.45,0017.49
2023-05-23 19:54:00,,0830.3,5.00,0.00,29.4,28.1,00.0,37.7,31.2,19.3,0003.5,0018.21,0026.22,0017.42
2023-05-23 19:55:00,,0830.2,4.98,0.00,29.5,27.2,00.0,37.6,31.1,18.7,0003.4,0018.20,0026.17,0017.40
2023-05-23 19:56:00,,0830.1,5.00,0.00,29.4,25.9,00.0,37.6,30.9,18.4,0003.4,0018.19,0026.00,0017.35
2023-05-23 19:57:00,,0830.1,5.01,0.00,29.4,25.9,00.0,37.5,30.8,18.5,0003.4,0018.21,0025.93,0017.34
2023-05-23 19:58:00,,0830.1,5.01,0.00,29.3,26.1,00.0,37.5,30.8,19.4,0003.5,0018.27,0026.08,0017.36
2023-05-23 19:59:00,,0830.1,4.99,0.00,29.3,26.4,00.0,37.6,30.8,20.8,0003.6,0018.42,0026.72,0017.49
